This demonstration page uses our WeatherBlox Daily Observations layout. Learn more.

Left ArrowRight Arrow

Hourly Observations for May 13, 2020

Temp ( °F °C ) Dew Point ( °F °C ) Humidity (%) Winds ( mph kmh ) Pressure ( in mb ) Visibility ( mi km ) Precip ( " mm )
12:53 am 00:53 Clear 74 23.3 59 15 60 60 SSE 12 19 29.72 1006 10 16 0.00 0.00
1:53 am 01:53 Clear 72 22.2 60 15.6 66 66 SE 13 20 29.71 1006 10 16 0.00 0.00
2:53 am 02:53 Clear 71 21.7 61 16.1 71 71 SSE 10 17 29.72 1006 10 16 0.00 0.00
3:53 am 03:53 Clear 71 21.7 61 16.1 71 71 SE 15 24 29.69 1005 10 16 0.00 0.00
4:53 am 04:53 Clear 72 22.2 61 16.1 68 68 SSE 18 30 29.70 1006 10 16 0.00 0.00
5:53 am 05:53 Mostly Clear 71 21.7 61 16.1 71 71 SE 14 22 29.70 1006 10 16 0.00 0.00
6:53 am 06:53 Clear 70 21.1 61 16.1 73 73 SSE 14 22 29.71 1006 10 16 0.00 0.00
7:53 am 07:53 Mostly Sunny 69 20.6 62 16.7 78 78 S 15 24 29.76 1008 10 16 0.00 0.00
8:35 am 08:35 Partly Cloudy 81 27.2 43 6.1 26 26 ESE 10 17 29.71 1006 10 16 0.00 0.00
8:53 am 08:53 Mostly Cloudy 70 21.1 61 16.1 73 73 SE 22 35 29.75 1008 10 16 0.00 0.00
9:53 am 09:53 Partly Cloudy 81 27.2 51 10.6 35 35 SE 9 15 29.73 1007 10 16 0.00 0.00
10:53 am 10:53 Mostly Sunny 82 27.8 58 14.4 44 44 SE 13 20 29.73 1007 10 16 0.00 0.00
11:53 am 11:53 Sunny 82 27.8 59 15 46 46 SSE 16 26 29.75 1007 10 16 0.00 0.00
12:53 pm 12:53 Sunny 85 29.4 58 14.4 40 40 S 17 28 29.73 1007 10 16 0.00 0.00
1:53 pm 13:53 Sunny 87 30.6 56 13.3 35 35 S 14 22 29.71 1006 10 16 0.00 0.00
2:53 pm 14:53 Sunny 90 32.2 53 11.7 28 28 SSW 6 9 29.67 1005 10 16 0.00 0.00
3:53 pm 15:53 Mostly Sunny 93 33.9 50 10 23 23 WSW 10 17 29.63 1004 10 16 0.00 0.00
4:53 pm 16:53 Sunny 95 35 37 2.8 13 13 W 13 20 29.59 1002 10 16 0.00 0.00
5:53 pm 17:53 Sunny 95 35 34 1.1 12 12 SW 14 22 29.58 1002 10 16 0.00 0.00
6:37 pm 18:37 Sunny 90 32.2 49 9.4 24 24 SE 20 31 29.51 999 10 16 0.00 0.00
6:53 pm 18:53 Sunny 89 31.7 48 8.9 24 24 SE 21 33 29.59 1002 10 16 0.00 0.00
7:53 pm 19:53 Sunny 85 29.4 52 11.1 32 32 SSE 23 37 29.62 1003 10 16 0.00 0.00
8:53 pm 20:53 Clear 78 25.6 53 11.7 42 42 SE 17 28 29.66 1004 10 16 0.00 0.00
9:53 pm 21:53 Clear 74 23.3 54 12.2 50 50 SSE 10 17 29.69 1005 10 16 0.00 0.00
10:53 pm 22:53 Clear 73 22.8 53 11.7 50 50 SSE 9 15 29.71 1006 10 16 0.00 0.00
11:53 pm 23:53 Clear 71 21.7 54 12.2 55 55 SE 12 19 29.72 1006 10 16 0.00 0.00

Powered by AerisWeather